Вернуться в каталог

FREGAT DEB

АктивенUNKNOWN
NORAD 45814·DEBRIS·🇷🇺 Russia

Запущен Jul 18, 2011 с Baikonur Cosmodrome

Loading…

Ближайшие Пролёты (ближайшие 24 часа)

TLE

СвежийSource: Space-Track

Эпоха: Sep 13, 2026, 22:52 UTC

1 45814U 11037AY  26256.95302978  .00006062  00000-0  40093-1 0  9999
2 45814  51.1178 337.0020 0971363 172.4115 189.2672 11.56390190262002

Отслеживайте FREGAT DEB в реальном времени с AllMySat

Download on the App Store